[[{"header":{"parameterUnit":"m.s-1","parameterCategory":1,"la1":30.2991,"la2":30.254,"lo1":-89.0895,"lo2":-89.0444,"dy":0.0017,"dx":0.0017,"nx":28,"ny":28,"refTime":"2024-04-27T21:00:00:Z","depth":0,"parameterNumber":2,"parameterNumberName":"U-component_of_WINDS"},"data":[0,0,0,0,0,0,0,0,0,0,0,0,0,0,0,0,0,0,0,0,0,0,0,0,0,0,0,0,0,0,0,0,0,0,0,0,0,0,0,0,0,0,0,0,0,0,0,0,0,0,0,0,0,0,0,0,0,0,-7.1781,-7.1782,0,-7.1859,-7.186,-7.1861,-7.184,-7.1838,-7.1837,-7.1835,-7.191,-7.1914,-7.1917,0,0,0,0,0,0,0,0,0,0,0,0,0,-7.1611,-7.1614,-7.1781,-7.1782,-7.1783,-7.1859,-7.186,-7.1861,-7.184,-7.1838,-7.1836,-7.1834,-7.1909,-7.1913,-7.1918,0,0,0,0,0,0,0,0,0,0,0,0,0,-7.1686,-7.1615,-7.1781,-7.1782,-7.1783,-7.1859,-7.186,-7.1861,-7.184,-7.1838,-7.1836,-7.1833,-7.1908,-7.1913,-7.1918,-7.1997,0,0,-7.1934,-7.1936,0,0,0,0,0,0,0,0,-7.1682,-7.1693,-7.1781,-7.1782,-7.1783,-7.1837,-7.1828,-7.1906,-7.1841,-7.1818,-7.1835,-7.1832,-7.1888,-7.1894,-7.1914,-7.2,-7.2003,-7.1934,-7.1938,-7.194,-7.1941,0,0,0,0,0,0,0,-7.1677,-7.1689,-7.1812,-7.1782,-7.1783,-7.1777,-7.1785,-7.1842,-7.1865,-7.182,-7.1819,-7.1828,-7.1888,-7.1909,-7.1916,-7.2004,-7.1934,-7.1939,-7.1942,-7.1944,-7.2159,-7.2162,0,0,0,0,0,0,-7.1671,-7.1685,-7.1809,-7.1814,-7.1726,-7.1782,-7.1791,-7.1822,-7.1864,-7.1869,-7.183,-7.1827,-7.1901,-7.191,-7.1918,-7.2012,-7.194,-7.1945,-7.1948,-7.2157,-7.216,-7.2163,0,0,0,0,0,0,-7.1668,-7.1683,-7.1806,-7.1749,-7.1764,-7.1788,-7.1822,-7.1825,-7.1846,-7.1872,-7.1876,-7.1848,-7.19,-7.1911,-7.1978,-7.2014,-7.1947,-7.1952,-7.2154,-7.2158,-7.2161,-7.2201,0,0,0,0,0,0,-7.1663,-7.1682,-7.1712,-7.175,-7.1768,-7.1865,-7.1825,-7.1828,-7.1855,-7.1852,-7.189,-7.1893,-7.1899,-7.197,-7.1983,-7.202,-7.1956,-7.215,-7.2156,-7.216,-7.2196,-7.2205,-7.2213,0,0,0,0,0,-7.1657,-7.1719,-7.1713,-7.1728,-7.1806,-7.1867,-7.1877,-7.1883,-7.1859,-7.1889,-7.1906,-7.1892,-7.2009,-7.1977,-7.1991,-7.2031,-7.2148,-7.2154,-7.216,-7.2192,-7.2203,-7.2213,0,0,0,0,0,0,-7.1681,-7.1723,-7.1718,-7.1794,-7.1828,-7.1863,-7.1901,-7.1895,-7.1934,-7.1929,-7.1934,-7.1943,-7.2011,-7.2028,-7.1991,-7.2109,-7.2075,-7.2084,-7.2095,-7.2106,-7.2114,-7.2107,-7.196,0,0,0,0,0,-7.1696,-7.1743,-7.1777,-7.1841,-7.1858,-7.1877,-7.1904,-7.1906,-7.194,-7.1953,-7.1975,-7.2008,-7.2052,-7.208,-7.2122,-7.22,-7.2207,-7.2235,-7.2243,-7.225,-7.2257,-7.2299,-7.2311,-7.2182,-7.2182,-7.2182,0,0,-7.1726,-7.1755,-7.1784,-7.1847,-7.1873,-7.192,-7.1889,-7.194,-7.1975,-7.1961,-7.2025,-7.2043,-7.2079,-7.2152,-7.2185,-7.2168,-7.2295,-7.2258,-7.2263,-7.2266,-7.2306,-7.2318,-7.2329,-7.2186,-7.2185,-7.2185,0,0,-7.1804,-7.1832,-7.1887,-7.1915,-7.1956,-7.1969,-7.1982,-7.202,-7.2032,-7.2097,-7.2088,-7.213,-7.2206,-7.2232,-7.2255,-7.2348,-7.2336,-7.2362,-7.2405,-7.2446,-7.2456,-7.2465,-7.2496,-7.2507,-7.2369,-7.2369,-7.2369,0,-7.1835,-7.1907,-7.1916,-7.1969,-7.1997,-7.199,-7.2046,-7.2072,-7.2124,-7.2142,-7.2124,-7.222,-7.2245,-7.2323,-7.2346,-7.2366,-7.2381,-7.2355,-7.2454,-7.2463,-7.2472,-7.2501,-7.2513,-7.2372,-7.2371,-7.2371,-7.2371,0,-7.1942,-7.1993,-7.2033,-7.2085,-7.2118,-7.2172,-7.2189,-7.2222,-7.2223,-7.2237,-7.2304,-7.2334,-7.2382,-7.2402,-7.2402,-7.2481,-7.2469,-7.2453,-7.2418,-7.2486,-7.2514,-7.2526,-7.2375,-7.2374,-7.2374,-7.2373,0,0,-7.2033,-7.2093,-7.2107,-7.2131,-7.2177,-7.2216,-7.2271,-7.2319,-7.2346,-7.2384,-7.2428,-7.2495,-7.248,-7.2507,-7.2511,-7.2548,-7.2617,-7.2527,-7.2528,-7.254,-7.2704,-7.2714,-7.2727,-7.2612,-7.2615,-7.2616,-7.27,0,-7.2113,-7.2209,-7.2221,-7.2306,-7.2353,-7.2349,-7.2396,-7.2429,-7.2446,-7.2487,-7.2505,-7.2551,-7.253,-7.2546,-7.2582,-7.2601,-7.265,-7.2596,-7.2651,-7.2653,-7.2639,-7.2741,-7.2751,-7.2829,-7.2711,-7.2713,-7.2715,0,-7.2217,-7.226,-7.235,-7.2391,-7.2411,-7.2453,-7.25,-7.254,-7.2578,-7.2588,-7.262,-7.262,-7.2676,-7.2642,-7.2718,-7.2681,-7.2706,-7.2719,-7.2722,-7.2724,-7.2685,-7.2743,-7.2854,-7.2864,-7.2732,-7.2731,-7.273,0,-7.2271,-7.2351,-7.2416,-7.2437,-7.2487,-7.2517,-7.2539,-7.2575,-7.2604,-7.2645,-7.2664,-7.2711,-7.2735,-7.2771,-7.2784,-7.2759,-7.2859,-7.2827,-7.2867,-7.2867,-7.2884,-7.2882,-7.2997,-7.2906,-7.2906,-7.2906,-7.2906,0,-7.2357,-7.2412,-7.2441,-7.248,-7.2541,-7.2556,-7.2616,-7.2637,-7.267,-7.2712,-7.2713,-7.2752,-7.2769,-7.2811,-7.2822,-7.2883,-7.2895,-7.2903,-7.2904,-7.29,-7.2899,-7.2913,-7.2907,-7.2909,-7.2908,-7.2908,-7.2907,0,-7.2426,-7.2448,-7.2517,-7.2561,-7.2573,-7.2616,-7.2653,-7.269,-7.2708,-7.2762,-7.2776,-7.2803,-7.2853,-7.2871,-7.2932,-7.2939,-7.3009,-7.3008,-7.2996,-7.2996,-7.3034,-7.3029,-7.3159,-7.3176,-7.3077,-7.3078,-7.3078,0,-7.2477,-7.2519,-7.2568,-7.2598,-7.2622,-7.2669,-7.27,-7.2716,-7.2748,-7.2796,-7.2828,-7.2879,-7.2919,-7.3,-7.3024,-7.3071,-7.3069,-7.3112,-7.3075,-7.3071,-7.3066,-7.3062,-7.3066,-7.3116,-7.3117,-7.3118,-7.3119,0,-7.2565,-7.2575,-7.2619,-7.2669,-7.2706,-7.2745,-7.2783,-7.2807,-7.2829,-7.2865,-7.2917,-7.2949,-7.3013,-7.3062,-7.3111,-7.3133,-7.3129,-7.3131,-7.3142,-7.3137,-7.3128,-7.3131,-7.3011,-7.3127,-7.3126,-7.3125,-7.3125,-7.3125,-7.2625,-7.2663,-7.2703,-7.2753,-7.2785,-7.2821,-7.2858,-7.2882,-7.2927,-7.298,-7.2988,-7.3044,-7.3082,-7.3147,-7.3172,-7.3216,-7.3204,-7.3221,-7.3224,-7.3227,-7.3229,-7.3124,-7.3225,-7.3225,-7.3225,-7.3225,-7.3224,0,-7.2711,-7.2738,-7.2785,-7.2838,-7.2878,-7.2875,-7.2918,-7.295,-7.3,-7.3037,-7.3078,-7.3139,-7.3188,-7.3218,-7.3267,-7.3296,-7.3296,-7.3308,-7.3304,-7.3309,-7.3238,-7.3222,-7.3308,-7.3308,-7.3308,-7.3308,-7.3308,-7.3308,-7.276,-7.2824,-7.2838,-7.2917,-7.2944,-7.3,-7.3024,-7.3057,-7.3087,-7.3155,-7.3196,-7.3217,-7.3251,-7.3303,-7.3348,-7.3356,-7.3373,-7.3386,-7.3392,-7.3323,-7.3314,-7.3306,-7.3291,-7.339,-7.339,-7.3459,-7.346,-7.346]},{"header":{"parameterUnit":"m.s-1","parameterCategory":1,"la1":30.2991,"la2":30.254,"lo1":-89.0895,"lo2":-89.0444,"dy":0.0017,"dx":0.0017,"nx":28,"ny":28,"refTime":"2024-04-27T21:00:00:Z","depth":0,"parameterNumber":3,"parameterNumberName":"V-component_of_WINDS"},"data":[0,0,0,0,0,0,0,0,0,0,0,0,0,0,0,0,0,0,0,0,0,0,0,0,0,0,0,0,0,0,0,0,0,0,0,0,0,0,0,0,0,0,0,0,0,0,0,0,0,0,0,0,0,0,0,0,0,0,5.9617,5.9618,0,5.9767,5.9768,5.977,5.983,5.9829,5.9829,5.9829,5.9975,5.9979,5.9983,0,0,0,0,0,0,0,0,0,0,0,0,0,5.9378,5.9382,5.9616,5.9618,5.962,5.9766,5.9768,5.977,5.983,5.9829,5.9829,5.9829,5.9974,5.9979,5.9984,0,0,0,0,0,0,0,0,0,0,0,0,0,5.95,5.9383,5.9616,5.9668,5.9674,5.9766,5.9768,5.9771,5.983,5.9829,5.9829,5.9828,5.9972,5.9978,5.9985,6.0034,0,0,6.0004,6.0007,0,0,0,0,0,0,0,0,5.9493,5.9508,5.9658,5.9664,5.9671,5.9779,5.9738,5.9859,5.983,5.977,5.9829,5.9828,5.991,5.9921,5.995,6.0041,6.0047,6.0004,6.0008,6.0011,6.0013,0,0,0,0,0,0,0,5.9484,5.9502,5.9676,5.966,5.9668,5.9682,5.9699,5.9761,5.9841,5.9775,5.978,5.9798,5.9913,5.9944,5.9954,6.005,6.0004,6.001,6.0014,6.0016,6.0193,6.0194,0,0,0,0,0,0,5.9468,5.9495,5.9671,5.968,5.9579,5.9687,5.9706,5.9745,5.9841,5.9855,5.9798,5.98,5.9934,5.9947,5.996,6.0027,6.0011,6.0017,6.0021,6.0192,6.0194,6.0195,0,0,0,0,0,0,5.9463,5.9483,5.9665,5.9589,5.9613,5.9692,5.9735,5.9748,5.9779,5.9858,5.9872,5.9815,5.9934,5.9951,6.0017,6.0033,6.002,6.0026,6.0191,6.0193,6.0194,6.0161,0,0,0,0,0,0,5.9456,5.9481,5.9501,5.9589,5.9617,5.972,5.9736,5.9751,5.9791,5.9795,5.9877,5.989,5.9935,6.0007,6.0023,6.0041,6.0031,6.019,6.0192,6.0194,6.0161,6.0161,6.0161,0,0,0,0,0,5.9447,5.9483,5.9502,5.9523,5.9644,5.9721,5.9737,5.9789,5.9792,5.9813,5.9864,5.9888,6.0029,6.0013,6.0032,6.0052,6.0189,6.0192,6.0193,6.0161,6.0161,6.0161,0,0,0,0,0,0,5.9391,5.9495,5.9517,5.9583,5.9643,5.9731,5.9759,5.9787,5.9845,5.9846,5.9906,5.9924,5.9986,6.0026,6.0007,6.0108,6.0111,6.0117,6.008,6.008,6.008,6.0069,6.0036,0,0,0,0,0,5.9387,5.9442,5.953,5.958,5.9609,5.9679,5.9714,5.975,5.9813,5.9838,5.9894,5.9953,6.0012,6.0048,6.0105,6.0167,6.0187,6.0191,6.0191,6.019,6.0194,6.0233,6.0237,6.0201,6.0201,6.0201,0,0,5.9378,5.9442,5.9472,5.957,5.9621,5.9677,5.9699,5.9756,5.9798,5.9846,5.9913,5.9957,6.0027,6.0092,6.0123,6.0127,6.0209,6.0193,6.0192,6.0196,6.0236,6.0239,6.0242,6.0203,6.0202,6.0202,0,0,5.939,5.9444,5.9493,5.9545,5.9623,5.967,5.9682,5.9767,5.9799,5.9868,5.9907,5.9957,6.0054,6.0104,6.0142,6.0179,6.0204,6.0196,6.0196,6.0233,6.0236,6.0239,6.0254,6.0258,6.02,6.02,6.02,0,5.9368,5.9455,5.9514,5.9571,5.9613,5.9664,5.9715,5.9761,5.9853,5.9881,5.9884,6.0012,6.0062,6.0142,6.0151,6.018,6.0196,6.0187,6.0231,6.0235,6.0238,6.0253,6.0259,6.0199,6.0199,6.0199,6.0199,0,5.9426,5.9486,5.9516,5.9608,5.9654,5.9707,5.9774,5.9813,5.9846,5.9892,5.9964,6.0027,6.01,6.0122,6.0152,6.0206,6.0207,6.022,6.0224,6.0239,6.0255,6.0261,6.0197,6.0197,6.0198,6.0198,0,0,5.9403,5.9532,5.9542,5.9586,5.9678,5.9725,5.9781,5.9857,5.989,5.9953,6.0002,6.0086,6.0101,6.0144,6.0181,6.0214,6.0243,6.0224,6.0226,6.0226,6.0309,6.0299,6.0305,6.026,6.0262,6.0263,6.0304,0,5.9429,5.9535,5.9592,5.9673,5.973,5.9781,5.9831,5.9892,5.9938,5.9993,6.0043,6.0103,6.0117,6.0144,6.0178,6.0232,6.026,6.0229,6.0306,6.0308,6.0288,6.0312,6.0301,6.0337,6.031,6.0311,6.0312,0,5.9472,5.9539,5.9627,5.9717,5.9744,5.9787,5.9863,5.9914,5.9986,6.0018,6.0069,6.0107,6.0168,6.0169,6.0255,6.0234,6.0269,6.03,6.0303,6.0312,6.0311,6.0323,6.0349,6.0355,6.0321,6.032,6.032,0,5.945,5.9561,5.963,5.9665,5.9772,5.9802,5.9847,5.9919,5.9962,6.0027,6.0056,6.0126,6.0165,6.0218,6.0275,6.027,6.0356,6.0361,6.0384,6.0383,6.0399,6.0397,6.0432,6.0421,6.0421,6.0421,6.042,0,5.9473,5.9525,5.9622,5.9663,5.9724,5.9789,5.9847,5.9896,5.9961,6.0013,6.006,6.0108,6.0179,6.0236,6.028,6.0346,6.0362,6.039,6.0401,6.0386,6.0383,6.0409,6.0409,6.0422,6.0422,6.0421,6.0421,0,5.9457,5.9524,5.9602,5.9699,5.9724,5.9765,5.9847,5.9889,5.994,6.0006,6.0025,6.0103,6.0172,6.0235,6.0325,6.0355,6.0423,6.0437,6.04,6.0406,6.0427,6.0424,6.048,6.0492,6.0471,6.0471,6.0471,0,5.9467,5.951,5.9612,5.9653,5.9698,5.9761,5.9807,5.9874,5.9919,6.0007,6.004,6.0114,6.0176,6.0285,6.0349,6.042,6.0436,6.0451,6.0446,6.0432,6.0438,6.0435,6.0441,6.045,6.045,6.045,6.045,0,5.9479,5.9512,5.9577,5.9656,5.971,5.9773,5.9838,5.9868,5.9947,5.9996,6.007,6.0119,6.0215,6.0288,6.0367,6.0412,6.0445,6.0451,6.0461,6.0446,6.0424,6.0438,6.04,6.0449,6.0449,6.0449,6.0449,6.0449,5.9478,5.952,5.96,5.9672,5.973,5.9791,5.9837,5.9895,5.9959,6.0045,6.008,6.0155,6.023,6.034,6.0386,6.0446,6.0451,6.0464,6.0468,6.047,6.0469,6.0414,6.046,6.046,6.046,6.046,6.046,0,5.9494,5.955,5.9616,5.9708,5.9766,5.9795,5.987,5.9915,5.9982,6.005,6.0113,6.0199,6.0272,6.0344,6.042,6.0454,6.0471,6.0472,6.047,6.0481,6.0458,6.0443,6.0458,6.0458,6.0458,6.0458,6.0458,6.0458,5.9509,5.9583,5.9625,5.9728,5.9783,5.986,5.99,5.9957,6.0013,6.0108,6.017,6.0218,6.0288,6.0371,6.0439,6.0459,6.0485,6.0482,6.0505,6.0483,6.0482,6.0481,6.0468,6.0487,6.0487,6.0524,6.0524,6.0524]}]]